Location: Asheville, NC
(35.6000°N, 82.5500°W)
Time: 17:37:49

HO-68 - Pass Details

Date: 12 March 2018
Orbit: 1193 x 1204 km, 100.1° (Epoch: 20 March)

Event Time Altitude Azimuth Distance (km) Brightness Sun altitude
Rises 20:27:08 0° 188° (S) 4,074 ? -11.4°
Reaches altitude 10° 20:29:58 10° 196° (SSW) 3,115 ? -11.9°
Maximum altitude 20:36:26 37° 262° (W) 1,767 ? -13.2°
Drops below altitude 10° 20:42:58 10° 328° (NNW) 3,136 ? -14.6°
Sets 20:45:51 0° 336° (NNW) 4,105 ? -15.1°
